Flag for Norway Weather past 2 weeks in Ålgård, Norway

Now
45 °F

Light rain. Partly sunny.


Feels Like: 37 °F
Forecast: 36 / 48 °F
Wind: 16 mph from West

Location: Stavanger / Sola


UV Index: 0 (Low)

Visibility: N/A


Pressure: 29.59 "Hg

Humidity: 87%

Dew point: 41 °F

Location of ÅlgårdLocation

Historic Weather in Ålgård

°F

Ålgård temperature yesterday

Maximum temperature yesterday: 50 °F (at 12:20 PM)
Minimum temperature yesterday: 37 °F (at 4:50 AM)
Average temperature yesterday: 45 °F

Past Weeks' High & Low Weather Summary

 TemperatureHumidityPressure
High57 °F (Apr 7, 2:50 PM)100% (Apr 7, 12:20 AM)30.36 "Hg (Apr 7, 12:20 AM)
Low30 °F (Apr 3, 4:50 AM)18% (Apr 5, 2:50 AM)29.42 "Hg (Apr 8, 4:50 AM)
Average45 °F64%29.87 "Hg
* Reported Apr 2 10:20 AM — Apr 17 10:50 AM, Ålgård, Weather by CustomWeather, © 2014

Note: Actual official high and low records may vary slightly from our data, if they occured in-between our weather recording intervals... More about our weather records

Advertising

Historic Weather Conditions — Data for Previous 24 hours

 ConditionsComfort  
Time TempWeatherWind HumidityBarometerVisibility
10:50 AM
Apr 17
45 °FLight rain. Fog.13 mph100%29.62 "Hg3 mi
10:20 AM45 °FLight rain. Fog.16 mph100%29.62 "Hg3 mi
9:50 AM45 °FLight rain. Fog.18 mph100%29.65 "Hg2 mi
9:20 AM45 °FDrizzle. Partly sunny.18 mph93%29.65 "Hg4 mi
8:50 AM45 °FLight rain. Broken clouds.20 mph93%29.68 "Hg5 mi
8:20 AM45 °FDrizzle. Broken clouds.16 mph93%29.71 "Hg4 mi
7:50 AM45 °FDrizzle. Broken clouds.17 mph93%29.74 "Hg4 mi
7:20 AM45 °FLight rain. Broken clouds.22 mph93%29.74 "Hg6 mi
6:50 AM45 °FPartly cloudy.21 mph87%29.77 "HgN/A
6:20 AM45 °FPartly cloudy.18 mph87%29.77 "Hg6 mi
5:50 AM45 °FPassing clouds.18 mph87%29.80 "Hg5 mi
4:50 AM45 °FPassing clouds.20 mph87%29.86 "Hg6 mi
3:50 AM45 °FPassing clouds.18 mph87%29.92 "Hg6 mi
2:50 AM45 °FPassing clouds.18 mph81%29.98 "Hg6 mi
1:50 AM45 °FPassing clouds.18 mph81%30.04 "HgN/A
12:50 AM45 °FPartly cloudy.17 mph81%30.07 "HgN/A
12:20 AM45 °FPassing clouds.17 mph81%30.07 "HgN/A
11:50 PM
Apr 16
45 °FPassing clouds.16 mph81%30.09 "HgN/A
10:50 PM43 °FPartly cloudy.15 mph87%30.12 "HgN/A
10:20 PM45 °FPartly cloudy.16 mph81%30.12 "HgN/A
9:50 PM45 °FBroken clouds.15 mph81%30.15 "HgN/A
9:20 PM45 °FScattered clouds.15 mph81%30.15 "HgN/A
8:50 PM45 °FScattered clouds.15 mph81%30.15 "HgN/A
8:20 PM45 °FPartly sunny.16 mph81%30.15 "HgN/A
7:50 PM46 °FPartly sunny.16 mph76%30.15 "HgN/A
7:20 PM46 °FPartly sunny.20 mph76%30.18 "HgN/A
6:50 PM46 °FPartly sunny.17 mph76%30.18 "HgN/A
6:20 PM48 °FPartly sunny.17 mph71%30.18 "HgN/A
5:50 PM48 °FPartly sunny.17 mph71%30.21 "HgN/A
5:20 PM50 °FPartly sunny.18 mph67%30.21 "HgN/A
4:50 PM48 °FPartly sunny.18 mph71%30.24 "HgN/A
4:20 PM48 °FBroken clouds.18 mph71%30.24 "HgN/A
3:50 PM48 °FBroken clouds.18 mph76%30.24 "HgN/A
3:20 PM48 °FBroken clouds.18 mph71%30.24 "HgN/A
2:50 PM48 °FPartly sunny.20 mph71%30.27 "HgN/A
2:20 PM48 °FBroken clouds.18 mph71%30.27 "HgN/A
1:50 PM48 °FBroken clouds.18 mph71%30.27 "HgN/A
1:20 PM48 °FPartly sunny.21 mph71%30.27 "HgN/A
12:50 PM48 °FBroken clouds.21 mph71%30.27 "HgN/A
12:20 PM50 °FScattered clouds.18 mph67%30.27 "HgN/A
Weather by CustomWeather, © 2014

See weather overview